GFSGL_250_rhum_114.txt.gz
RH
50 36 42 34 37 38 34 60 45 59 100 100 100 100 100 100 100 100 100 100 100 100 100 100 100 98 100 100 100 99 96 96 82 99 100 88 76 82 85 70 80 99 100
68 48 44 39 36 37 36 77 78 90 100 100 100 100 100 100 100 100 100 100 100 100 87 76 100 100 100 100 100 100 98 98 100 100 100 100 95 84 100 100 100 100 100
78 63 63 47 38 36 36 35 100 94 100 100 100 100 100 100 100 100 100 100 100 100 100 100 100 100 100 100 100 100 100 100 100 100 100 100 100 100 100 100 100 100 100
78 54 70 62 51 45 35 34 34 80 97 100 100 100 100 100 100 100 100 100 96 93 100 100 95 100 100 100 100 100 100 100 100 98 100 100 100 100 100 100 100 100 100
76 82 69 83 89 73 49 36 34 32 84 83 100 100 100 100 100 100 100 100 100 98 100 100 100 100 100 100 100 95 98 100 100 100 100 100 100 100 100 100 100 98 100
72 100 88 64 84 98 84 74 52 37 33 36 100 77 74 100 100 100 100 100 100 100 100 100 100 88 100 100 100 100 100 100 100 100 100 100 100 100 95 84 78 80 62
62 85 100 93 58 72 83 77 83 77 54 38 34 69 100 100 100 100 100 100 100 100 100 100 100 100 100 100 100 100 100 100 100 98 92 88 88 72 68 56 51 47 48
62 70 80 93 91 85 100 96 90 66 52 61 64 42 35 61 99 100 100 100 100 100 100 100 100 100 100 100 99 93 95 94 83 78 76 65 76 76 59 48 42 47 53
70 96 91 87 94 95 93 98 98 96 68 59 59 65 66 57 50 37 40 48 54 55 54 55 62 64 66 64 63 63 68 75 97 99 85 74 69 58 40 38 39 55 67
93 76 64 74 73 72 75 60 46 70 100 100 90 74 69 60 58 47 54 56 52 59 61 70 55 68 79 80 76 71 69 60 52 50 47 42 38 42 52 52 62 70 74
100 100 96 67 93 67 61 53 60 58 42 45 45 56 46 66 72 67 58 58 57 54 53 67 78 78 72 68 70 61 49 41 38 40 39 35 40 60 67 68 86 97 96
100 100 100 100 99 100 99 76 96 84 63 68 80 45 37 38 57 43 52 60 49 54 56 65 80 81 73 60 49 46 49 49 64 60 76 78 93 82 88 98 94 100 94
100 100 99 100 100 100 100 100 100 98 67 47 37 48 80 87 99 61 48 58 89 76 44 54 61 62 46 44 47 49 51 62 69 96 93 100 100 100 100 100 100 100 98
100 100 100 100 100 100 100 100 100 100 100 63 90 100 95 97 85 81 100 100 89 61 84 64 61 80 96 100 93 100 96 97 100 100 100 100 100 100 100 100 100 100 71
100 100 100 100 100 100 100 100 96 100 100 100 100 100 98 99 100 100 100 100 100 100 100 93 100 100 100 100 100 100 100 100 100 100 100 100 100 100 100 92 82 80 69
100 100 100 100 100 91 100 100 100 100 100 100 100 100 98 100 99 100 100 100 100 100 100 100 100 100 100 100 100 100 100 100 100 100 100 97 91 92 81 79 78 68 67
100 100 100 100 100 99 99 100 97 92 89 100 100 100 100 99 100 100 100 100 100 100 100 100 100 100 100 98 100 100 98 100 90 87 92 86 71 75 73 62 81 82 53
100 100 100 100 100 100 100 100 100 100 100 100 100 100 100 100 100 100 100 100 100 100 100 100 100 100 100 100 100 100 100 100 97 90 75 82 74 81 90 85 77 70 51
82 76 75 90 100 100 97 94 100 100 100 100 100 100 100 100 100 100 100 100 100 100 100 100 96 100 99 98 98 97 82 66 61 65 65 71 86 73 72 66 58 43 43
100 100 100 100 91 90 100 100 87 94 98 90 99 99 100 100 100 100 100 100 100 99 90 93 100 97 86 62 51 46 48 55 58 70 75 70 68 73 61 56 48 36 27
85 93 98 92 100 100 100 91 94 99 98 99 100 100 100 100 100 100 97 92 92 92 98 94 85 58 47 54 52 56 60 67 75 80 76 67 62 70 44 29 26 19 14
100 100 100 100 99 95 100 100 100 98 89 99 99 98 94 90 90 82 82 79 85 100 79 49 41 43 45 45 53 61 70 68 66 70 60 56 48 42 33 18 16 12 12
97 98 96 97 100 100 100 99 96 85 81 80 73 72 71 71 73 81 99 84 51 32 30 34 38 44 50 54 58 59 58 62 60 50 52 43 29 24 18 12 12 10 8
82 87 96 97 97 88 82 72 68 66 64 66 69 77 86 82 63 37 29 28 32 40 44 49 56 62 66 65 63 68 64 50 42 51 34 22 19 15 11 11 10 7 5
41 46 52 56 54 57 62 60 54 53 42 38 32 29 28 29 31 34 38 45 50 56 57 55 58 62 59 56 44 43 46 35 27 22 18 16 12 11 11 10 6 5 5
25 26 28 29 28 29 29 29 29 29 30 32 32 33 35 36 38 43 48 49 44 43 39 34 32 30 27 29 32 32 26 18 18 17 12 12 12 12 9 6 5 4 4

GFSGL_250_rhum_117.txt.gz
RH
100 85 47 42 36 38 32 23 20 27 100 99 97 87 70 62 83 98 100 75 74 99 100 100 100 100 100 100 93 92 97 100 100 100 100 95 91 72 56 70 88 95 73
100 87 56 44 42 43 42 33 28 23 24 100 100 100 97 86 84 100 100 100 100 100 100 100 100 100 100 100 100 100 100 100 100 100 100 97 54 67 77 99 100 73 69
100 98 57 44 54 53 43 36 35 40 77 26 97 100 100 100 100 100 98 100 100 100 100 100 100 100 100 99 98 100 100 100 100 98 97 81 99 100 100 92 70 100 100
100 96 64 62 60 56 41 40 34 35 73 100 68 95 100 100 100 100 100 100 100 100 100 100 100 96 100 100 100 100 100 99 88 94 99 100 100 95 97 100 100 100 100
100 96 75 64 64 64 46 52 45 36 37 100 100 100 100 100 100 100 100 100 100 100 100 100 99 100 100 100 100 100 100 100 100 100 100 99 100 100 100 100 100 100 100
100 100 96 63 68 74 68 69 53 56 39 46 100 100 100 100 100 100 100 100 100 100 100 100 100 100 100 100 100 100 100 100 100 100 100 100 100 100 100 100 100 100 97
100 100 96 83 81 93 80 87 67 61 52 40 49 82 100 100 100 100 100 100 100 100 100 100 100 100 100 100 100 94 87 100 100 100 100 100 100 100 100 96 81 78 57
98 100 100 100 100 100 100 92 77 86 83 64 47 44 54 100 100 100 100 100 100 99 100 100 100 100 100 92 98 100 100 100 100 100 100 95 88 83 76 60 54 51 46
99 95 84 96 91 100 100 88 80 93 89 88 56 52 47 41 71 100 100 100 100 100 100 100 100 100 100 100 100 100 100 89 77 67 62 54 62 61 60 55 45 38 34
100 91 67 93 86 83 98 100 87 83 100 100 68 54 47 54 55 50 53 69 84 90 98 98 92 86 82 85 82 72 61 56 62 62 69 75 70 60 49 41 35 40 48
99 96 99 100 100 97 99 94 73 66 77 68 62 38 42 45 44 62 58 48 46 55 69 65 58 58 58 51 46 48 43 42 52 63 49 45 43 40 41 49 54 58 87
100 97 100 100 100 100 77 69 78 68 59 52 51 58 49 47 43 44 45 46 40 52 55 54 62 49 53 50 52 46 42 42 40 38 41 45 58 73 65 70 80 98 100
100 100 100 82 86 89 89 91 97 96 99 99 89 77 52 41 39 35 39 44 58 52 59 61 54 51 56 48 45 41 39 42 39 52 56 77 93 100 93 100 100 94 91
100 100 100 100 100 89 65 94 76 88 95 80 83 74 55 44 33 35 40 42 49 53 56 69 56 46 45 47 45 51 69 72 87 89 100 100 100 100 98 94 86 91 99
78 100 100 100 100 84 99 92 89 94 99 83 85 100 100 60 51 54 57 58 88 89 85 49 54 63 56 58 63 80 98 100 100 100 100 100 100 94 94 91 96 98 100
100 95 100 100 100 100 100 100 100 100 100 100 100 100 100 90 78 84 82 82 74 76 81 96 84 71 68 89 91 100 100 100 100 100 100 100 93 92 96 94 100 88 70
100 100 100 100 100 100 100 100 100 100 100 100 100 100 100 100 100 100 100 100 100 100 100 99 100 100 100 100 100 100 100 100 100 100 100 99 91 99 95 96 49 45 54
100 100 100 100 100 100 100 100 93 100 100 100 100 100 100 100 100 99 78 94 100 100 100 100 100 100 100 100 100 100 100 100 100 100 90 86 95 90 71 40 40 50 47
100 100 100 98 97 97 100 100 100 100 100 100 100 100 100 100 100 100 100 100 100 100 100 100 97 96 100 100 100 100 100 100 99 84 80 89 91 43 44 39 40 45 39
93 100 100 100 100 100 100 100 100 100 100 100 100 100 100 95 92 93 100 99 100 96 96 99 97 100 100 100 100 100 100 91 90 89 88 47 34 36 38 37 35 30 32
73 82 75 89 73 79 88 90 85 100 100 96 100 94 75 74 87 94 90 100 97 96 100 100 100 100 100 100 99 86 83 88 90 38 31 37 35 30 26 25 29 21 19
100 87 87 86 84 87 95 100 100 94 93 86 75 82 84 95 94 99 95 100 98 99 100 100 99 89 88 84 77 77 66 32 35 34 32 32 27 25 26 20 17 17 15
76 100 100 100 100 100 100 100 100 92 91 95 96 96 97 100 100 100 99 95 99 100 95 91 89 77 85 91 38 32 35 33 32 32 25 22 21 20 18 17 17 14 13
97 98 96 88 89 100 100 96 99 100 100 100 96 100 99 91 91 86 100 100 99 86 69 86 83 36 33 32 31 32 30 25 23 20 18 20 18 18 17 15 12 11 10
100 100 96 97 100 100 100 100 100 100 100 100 100 100 100 99 96 91 96 99 77 55 36 31 30 30 31 30 24 21 21 19 20 20 19 18 17 15 11 11 11 11 11
85 81 79 81 87 96 98 94 89 75 65 64 64 74 87 88 73 54 39 28 28 30 29 29 29 25 20 20 20 20 23 24 21 18 17 15 12 12 12 12 12 10 7

GFSGL_250_rhum_120.txt.gz
RH
29 74 100 95 68 41 34 26 29 28 66 100 100 98 100 100 100 100 100 100 93 94 75 90 75 75 100 93 98 100 100 100 98 100 100 98 100 100 78 68 61 65 78
28 100 100 100 64 44 34 28 33 32 25 47 100 100 89 93 99 100 100 100 100 100 100 91 100 100 100 100 100 100 100 100 92 100 100 100 100 100 99 100 100 68 59
28 100 100 100 69 43 38 32 35 39 34 25 58 100 99 100 100 100 100 98 100 100 93 98 100 100 100 100 100 100 100 100 100 100 100 100 100 100 100 100 93 98 100
30 100 100 100 61 46 45 40 39 38 36 30 35 38 100 98 100 100 100 100 100 100 100 100 100 100 100 100 100 100 100 100 100 100 100 100 100 100 99 92 100 86 99
32 100 100 100 78 55 54 44 35 37 36 29 50 55 43 100 97 100 100 100 94 97 95 100 100 100 100 100 100 100 96 100 100 100 100 100 88 75 100 100 100 97 100
39 100 100 100 100 68 58 42 37 41 44 37 46 100 84 100 100 100 100 100 100 88 100 100 100 100 100 100 100 100 100 100 100 80 75 86 100 100 100 100 100 100 100
62 100 100 100 100 77 73 50 41 46 48 49 42 94 100 100 100 100 100 100 100 100 100 100 100 100 100 100 100 95 98 100 100 99 100 100 100 100 99 100 100 96 73
98 100 100 100 100 98 90 60 47 45 52 58 50 44 98 100 100 100 100 100 100 100 100 100 100 100 100 100 100 100 100 100 100 100 100 100 100 100 100 86 71 56 48
100 100 100 100 100 100 99 85 69 63 71 51 55 49 41 89 100 100 100 100 100 100 100 100 100 100 100 100 100 100 100 100 100 100 100 100 100 87 64 46 37 41 37
100 100 100 100 100 100 100 100 100 100 97 95 66 42 38 32 65 96 100 100 100 100 100 100 100 100 100 100 100 100 100 100 100 98 96 76 64 49 46 42 39 36 35
100 100 100 100 100 100 97 100 100 100 100 100 80 68 57 47 36 35 50 65 89 97 100 100 100 100 100 100 100 96 89 84 72 59 52 49 45 40 37 41 40 38 49
100 100 100 95 95 91 90 100 99 100 94 92 95 90 77 72 67 46 40 38 37 37 42 50 65 70 66 58 50 45 42 42 44 48 40 42 44 43 42 40 40 40 56
100 100 100 100 84 86 95 100 100 100 100 87 91 95 76 68 61 73 60 47 42 35 32 35 37 43 49 43 38 32 34 48 65 57 41 44 41 38 42 41 45 84 100
100 100 100 100 100 100 100 100 100 100 100 100 100 100 100 99 96 95 79 74 60 43 42 35 32 36 33 35 41 43 46 51 46 44 44 42 50 76 87 100 100 100 100
100 100 100 100 100 94 100 100 100 100 100 100 99 100 100 89 94 95 71 65 61 53 45 41 48 46 40 45 42 42 46 45 46 65 85 99 100 100 100 100 100 100 100
100 100 100 100 100 100 100 95 97 85 71 100 60 72 79 86 84 91 97 86 64 50 48 53 50 64 61 65 86 91 99 100 100 100 100 100 100 100 100 100 100 100 100
100 100 100 98 100 100 100 100 100 100 100 100 67 69 89 78 74 68 64 85 98 83 70 73 82 75 100 100 100 100 100 100 100 100 100 100 100 89 100 100 100 100 98
100 100 100 100 100 100 100 98 98 100 100 100 100 92 83 92 78 67 78 81 94 84 85 100 100 100 100 100 100 100 100 100 99 94 100 92 87 100 100 96 91 91 73
100 100 100 100 100 100 100 100 100 100 100 100 100 100 100 100 100 100 100 100 100 100 100 100 100 100 100 100 100 87 80 82 93 93 99 99 90 99 98 84 72 63 35
100 100 100 100 100 100 100 100 100 100 100 100 100 100 100 100 100 100 100 100 100 100 100 100 100 100 92 97 84 82 82 95 100 94 86 97 98 84 76 58 31 29 28
100 100 100 100 100 100 100 100 100 100 100 100 100 100 99 100 88 98 93 100 100 100 100 100 100 100 99 74 76 92 91 100 98 86 96 82 77 62 31 30 28 22 21
96 100 100 100 100 100 100 100 100 100 100 100 97 100 99 100 100 100 100 100 100 100 100 98 97 92 85 89 89 99 97 91 83 83 77 65 36 28 28 23 20 20 18
100 100 97 100 100 100 100 100 100 99 96 100 100 100 100 100 100 100 96 92 100 99 94 98 99 94 91 81 82 98 91 79 70 63 37 29 29 25 19 22 21 18 16
100 100 100 94 99 95 98 97 98 95 99 100 96 93 95 89 94 82 82 91 97 99 100 93 76 95 82 100 86 75 59 52 44 32 30 27 22 21 22 21 18 17 14
78 82 81 87 98 100 100 99 97 93 95 89 86 90 84 100 100 100 90 100 99 88 81 91 83 95 96 52 47 45 38 28 29 26 22 20 23 23 21 21 17 14 12
67 78 79 80 79 74 79 86 96 97 100 100 100 88 78 74 93 90 73 80 99 93 70 92 64 37 37 33 30 27 29 24 18 19 20 25 22 20 18 16 13 11 13

GFSGL_250_rhum_123.txt.gz
RH
100 77 47 40 55 60 95 100 52 34 30 22 92 83 82 100 100 100 100 100 100 100 100 100 100 100 100 100 100 100 100 88 68 81 80 66 70 78 90 100 100 100 100
100 60 54 42 53 96 100 97 48 35 29 24 77 88 81 88 100 100 100 100 100 100 100 100 100 100 100 100 100 100 95 75 100 100 99 100 100 100 97 100 100 100 100
68 54 54 45 41 100 100 93 55 38 30 27 33 100 93 83 96 100 100 100 100 100 100 100 97 100 100 100 100 100 100 96 97 100 100 100 100 100 100 100 100 100 100
64 60 52 44 41 100 100 85 53 41 32 31 25 61 100 99 87 98 100 100 100 100 100 100 100 100 100 100 100 93 100 100 90 91 100 86 99 100 100 100 100 100 100
71 71 55 43 56 100 100 81 51 44 37 33 31 22 41 90 100 66 73 100 100 100 100 100 100 100 100 100 100 100 100 100 100 100 96 76 99 100 100 99 99 76 71
78 66 47 42 67 100 98 76 49 45 42 38 31 27 27 24 29 100 79 80 97 92 91 80 100 100 100 100 100 100 100 100 100 100 100 100 95 96 98 86 91 100 100
76 69 44 38 73 100 100 72 49 47 47 38 33 29 36 48 54 55 100 100 98 100 100 100 100 100 100 100 100 100 100 100 100 100 100 100 100 100 96 100 100 100 100
73 56 44 35 85 100 100 66 58 51 45 39 36 31 32 100 98 100 100 100 100 100 100 100 100 100 100 100 100 100 100 100 100 100 83 92 100 100 100 100 100 100 100
59 43 42 31 98 100 100 71 67 55 48 41 37 36 36 43 100 100 100 100 100 100 100 100 100 100 100 100 100 100 100 100 100 100 100 100 100 100 100 100 100 100 91
47 39 34 30 100 100 100 91 93 70 58 44 44 41 39 33 37 100 100 100 100 100 100 100 100 100 100 100 100 100 100 100 100 100 100 100 100 100 100 99 92 75 65
45 44 34 35 100 100 100 100 100 95 73 70 67 59 50 40 32 28 68 100 100 100 100 100 100 100 100 100 100 100 100 100 100 100 100 100 100 100 96 78 57 39 28
40 36 37 57 100 100 100 100 100 100 100 100 100 100 92 65 47 38 36 34 49 87 100 100 100 100 100 100 100 100 100 100 100 100 100 93 81 60 46 38 35 31 36
37 35 84 100 100 100 100 100 100 92 100 73 97 100 100 89 66 58 57 51 40 40 42 61 84 87 86 84 82 83 81 76 60 46 36 32 33 31 30 38 39 43 57
77 90 100 100 100 100 100 100 98 79 84 100 98 94 89 81 95 76 80 72 70 56 41 41 43 42 42 40 37 32 29 31 36 38 38 35 31 32 39 63 80 100 100
100 100 100 100 100 100 100 100 100 88 90 92 100 100 100 100 100 100 100 90 81 75 77 63 43 40 41 43 42 38 48 47 46 40 36 39 49 66 100 100 100 100 99
100 100 100 100 100 100 100 89 78 75 95 100 100 100 100 100 100 100 100 100 100 96 82 78 65 61 50 44 45 43 47 53 52 44 51 87 99 100 100 100 92 99 83
100 100 100 100 100 100 100 100 100 100 100 100 100 100 100 100 100 89 95 84 92 96 90 84 81 68 53 47 56 68 60 56 74 99 100 100 100 100 100 97 93 77 75
100 100 100 100 100 100 100 99 100 100 100 100 100 100 94 94 87 84 93 92 78 69 59 79 71 55 53 63 83 87 99 100 100 100 100 100 100 100 98 91 92 76 67
100 100 100 100 100 100 100 100 100 97 100 100 100 100 100 100 100 100 100 99 80 54 51 59 61 94 95 100 100 100 100 95 90 96 100 100 99 100 94 98 97 84 80
100 100 100 100 100 100 100 100 100 100 100 100 100 100 100 100 100 96 95 100 96 85 95 100 100 100 100 98 100 100 100 100 100 100 100 100 100 98 91 83 93 76 83
100 100 100 100 100 100 100 100 100 100 100 100 100 100 100 100 100 100 100 100 100 100 100 100 100 100 100 100 100 100 100 100 100 100 100 93 89 87 88 79 82 57 49
100 100 100 100 100 100 100 100 100 100 100 100 100 100 100 100 100 100 100 100 100 100 100 100 100 100 96 96 100 100 97 91 89 96 91 80 83 82 77 82 60 54 28
100 100 100 100 100 91 100 100 100 100 100 100 100 100 100 100 100 100 100 100 100 100 100 100 100 100 97 100 96 86 96 93 83 81 80 74 88 88 58 56 37 25 26
100 100 100 100 100 100 100 100 100 100 100 100 100 100 100 100 100 100 100 100 100 100 100 100 100 100 100 100 99 92 86 81 69 68 72 78 71 64 41 28 26 23 20
100 100 100 100 100 100 100 100 100 100 100 100 100 100 100 100 100 100 100 100 100 100 100 100 98 87 93 95 85 78 79 74 74 85 59 57 52 28 28 26 21 20 18
70 93 95 98 98 97 96 99 100 98 100 100 100 100 100 100 100 100 100 100 100 94 100 100 94 84 87 77 69 78 72 87 64 80 36 25 27 26 23 21 20 17 15

GFSGL_250_rhum_129.txt.gz
RH
100 98 100 100 98 88 81 97 100 85 72 62 79 79 43 53 42 34 74 100 100 100 100 100 100 100 100 100 90 86 98 100 100 100 100 100 100 100 100 100 100 100 100
91 89 100 100 100 83 91 100 76 80 77 66 80 71 42 58 58 32 49 100 100 100 100 100 100 100 100 100 94 100 100 100 100 100 100 100 100 100 100 100 100 100 100
79 82 97 100 100 84 73 78 86 64 68 68 91 85 44 62 54 27 28 86 100 96 100 100 100 100 100 100 100 100 100 100 100 100 100 100 100 95 97 98 100 100 100
96 94 100 100 93 74 88 90 94 66 68 64 83 97 47 60 48 29 29 55 100 100 100 100 100 100 100 100 99 100 100 100 100 100 100 100 100 100 100 96 98 100 100
98 90 84 72 74 81 100 96 100 77 67 82 77 100 60 68 54 36 27 34 100 100 100 100 100 100 94 100 100 96 89 100 100 100 100 100 100 100 100 100 100 100 100
100 100 100 97 84 100 100 100 100 64 68 70 60 100 77 78 68 41 32 51 91 100 100 89 100 100 100 90 99 100 100 100 100 100 100 100 100 100 100 100 100 100 100
100 100 100 100 100 100 100 100 100 89 57 63 57 73 100 84 73 38 36 32 64 100 100 100 99 100 100 100 95 99 100 98 99 100 100 100 100 100 100 100 100 100 88
100 100 100 100 100 100 100 97 98 82 64 63 52 62 100 97 86 44 37 33 28 36 83 100 100 100 100 100 100 100 100 100 100 100 100 100 100 100 100 100 100 100 100
98 98 100 100 100 100 100 100 100 100 94 73 54 58 100 99 97 53 39 35 32 28 28 57 96 100 100 100 100 100 100 100 100 100 100 100 100 100 100 100 100 100 100
100 91 87 100 100 100 100 100 100 100 86 66 55 60 95 100 85 73 43 35 36 37 38 45 41 58 82 100 100 100 100 100 100 100 100 100 100 100 100 100 100 100 100
100 100 100 89 96 99 99 100 100 100 95 60 57 58 89 100 88 71 44 37 38 88 97 64 90 79 58 59 100 100 100 100 100 100 100 100 100 100 100 100 100 100 100
96 100 100 100 100 84 80 90 100 98 77 61 63 72 100 98 88 75 42 40 37 42 90 100 97 98 100 100 100 100 100 100 100 100 100 100 100 100 100 100 100 100 100
87 90 95 94 84 73 68 79 86 76 64 63 58 61 100 99 88 88 49 43 39 39 39 57 100 100 100 100 100 100 100 100 100 100 100 100 100 100 100 100 100 100 100
30 41 51 62 60 57 59 66 71 74 88 65 58 56 100 100 96 92 53 46 41 41 42 42 41 71 100 100 100 100 100 100 100 100 100 100 100 100 100 100 98 89 86
29 32 36 39 44 52 62 68 78 98 100 90 56 64 100 100 100 100 65 51 50 44 44 48 50 46 44 61 61 54 64 70 79 83 83 84 82 76 67 58 54 56 64
19 23 27 35 37 46 52 62 86 100 100 93 71 100 100 100 100 100 100 81 67 56 53 61 62 58 52 60 69 72 70 66 55 53 46 37 35 48 46 49 48 41 35
16 20 25 35 38 36 50 67 88 99 84 99 100 100 100 100 100 100 90 71 61 68 76 86 76 77 77 85 78 72 67 65 58 51 40 43 48 47 43 38 40 35 34
17 21 24 31 39 46 57 66 83 95 100 100 100 100 100 100 100 100 100 100 90 90 98 100 95 84 83 85 81 77 58 71 66 66 73 61 44 44 47 48 45 45 44
17 22 24 30 37 52 59 86 97 82 99 100 100 100 100 97 97 100 100 100 97 96 96 100 100 100 98 78 79 82 82 71 86 100 67 48 49 72 87 70 65 54 60
20 22 27 34 39 50 55 58 83 100 100 100 100 100 100 100 100 100 100 100 100 100 100 100 100 99 100 100 100 100 99 81 60 48 46 46 69 82 82 73 61 94 100
22 26 33 42 44 45 53 49 93 100 100 100 100 100 100 100 100 100 100 100 100 100 100 100 100 100 100 96 68 62 65 71 69 76 100 97 100 64 78 100 100 100 100
23 31 39 45 53 61 80 94 100 99 100 100 100 100 100 100 100 100 100 100 100 100 100 100 100 84 68 75 100 100 100 100 100 100 100 97 100 100 100 100 100 100 100
27 35 44 51 51 94 100 100 100 100 100 100 100 100 100 100 100 100 100 100 100 100 100 100 100 100 100 100 100 100 100 100 100 100 100 100 100 100 99 100 100 100 100
31 40 46 56 50 94 100 100 100 100 100 100 100 100 100 100 100 100 100 100 100 100 100 99 100 100 100 100 100 100 100 100 99 94 95 94 100 100 100 100 97 85 80
27 37 52 53 84 100 100 100 100 100 100 100 100 100 100 100 100 100 100 100 100 100 100 100 100 100 86 99 100 100 100 96 100 98 100 100 100 100 100 100 90 67 81
25 34 48 48 69 100 100 100 100 100 100 100 100 100 100 100 100 100 100 100 100 100 100 100 100 91 92 100 100 100 100 100 100 100 100 100 100 98 87 79 100 100 100

GFSGL_250_rhum_132.txt.gz
RH
100 100 100 100 96 89 92 86 70 70 80 85 100 100 100 77 73 72 44 49 67 38 86 99 95 100 99 100 96 92 100 100 100 100 100 100 100 100 100 100 100 100 100
100 100 100 85 83 100 100 95 64 88 100 100 82 100 100 69 64 71 50 52 69 38 94 95 99 100 100 100 100 100 97 100 100 100 100 100 100 100 100 100 100 100 93
100 100 100 98 87 96 91 81 72 100 100 86 63 100 100 95 78 60 58 53 70 34 90 96 97 100 100 100 100 100 100 100 100 100 100 100 100 100 100 100 100 100 100
100 100 100 100 100 99 97 95 76 100 100 100 71 71 95 98 86 68 54 52 77 41 55 100 86 100 100 100 100 100 100 100 100 100 100 100 100 100 100 100 100 91 84
100 100 100 100 100 100 100 92 77 96 100 100 74 68 96 93 85 73 64 51 81 40 28 100 100 100 100 100 100 100 100 85 100 100 100 100 100 100 100 100 100 100 100
100 100 100 100 100 100 100 82 81 100 100 81 65 63 81 91 98 69 68 56 88 39 29 50 99 90 99 100 100 100 93 84 80 100 100 100 100 100 100 100 100 100 100
100 100 100 100 100 100 86 86 100 98 76 64 63 54 74 68 98 65 81 61 88 51 34 28 83 87 70 73 85 100 100 100 82 71 97 100 100 100 100 100 100 99 96
96 100 100 100 100 90 93 82 74 70 56 61 67 95 100 100 75 69 70 83 82 76 36 34 68 97 100 92 88 86 100 100 100 90 94 86 89 100 100 100 100 100 100
97 100 100 100 100 100 100 88 76 64 58 97 99 58 86 71 78 66 56 89 95 92 43 34 33 48 97 100 100 99 100 100 100 100 100 100 100 100 100 100 100 100 100
100 100 100 100 100 100 100 100 100 82 78 70 100 97 76 64 73 69 68 77 100 100 43 34 33 31 30 62 94 100 100 100 100 100 100 100 100 100 100 100 100 100 100
100 100 100 100 100 100 100 100 100 100 96 76 84 81 75 72 82 73 67 76 92 100 59 37 35 34 34 36 37 90 100 100 100 100 100 100 100 100 100 100 100 100 100
100 89 94 99 99 95 90 100 100 100 100 94 97 92 97 83 96 72 70 78 82 100 72 42 39 34 64 92 76 73 69 100 100 100 100 100 100 100 100 100 100 100 100
44 42 58 62 80 78 72 76 96 100 100 100 100 100 100 85 76 77 75 64 79 100 94 50 43 41 78 99 100 92 81 74 84 100 100 100 100 100 100 100 100 97 100
23 24 36 43 53 69 67 70 76 96 96 100 100 100 82 76 96 100 88 62 80 100 99 63 45 44 45 98 100 100 100 100 100 100 100 100 100 100 100 100 100 100 100
22 23 25 25 33 44 50 50 74 86 79 83 76 77 78 89 100 96 91 62 80 99 100 68 49 52 52 50 57 90 100 100 100 100 100 100 100 100 100 100 100 95 89
19 20 17 21 24 27 36 51 60 76 80 78 68 72 80 87 95 94 76 64 86 100 100 99 66 58 53 52 53 50 44 52 76 100 100 100 93 86 88 83 69 58 72
11 13 14 14 16 19 24 34 41 43 47 51 66 75 94 100 99 89 60 66 98 100 100 100 100 80 65 54 52 50 49 58 69 83 77 72 74 74 61 57 46 50 46
9 11 13 14 16 20 24 31 39 40 46 55 74 80 100 100 100 88 73 100 100 100 100 100 100 100 88 79 69 72 76 77 83 81 73 72 65 66 54 46 46 53 75
8 10 11 13 15 18 22 29 35 40 48 67 77 76 100 100 100 100 100 100 100 100 100 100 100 100 98 87 80 85 100 96 89 81 77 75 64 56 49 48 59 74 73
9 10 12 13 15 18 22 32 34 39 56 69 88 96 100 100 100 100 100 100 100 100 100 100 100 100 100 97 100 100 99 84 77 67 61 53 45 45 68 84 72 62 67
10 11 13 15 17 19 23 33 40 48 61 74 91 96 97 97 100 100 100 100 100 100 100 100 100 100 100 100 91 83 77 68 60 62 60 76 92 98 81 85 89 67 61
11 13 15 15 17 20 26 38 48 54 62 78 88 95 100 100 100 100 100 100 100 100 100 100 100 100 100 100 100 94 87 85 74 76 86 83 83 79 68 55 79 100 100
12 14 17 17 20 22 28 38 52 59 68 80 82 84 100 100 100 100 100 100 100 100 100 100 100 100 100 100 100 90 93 93 88 97 100 100 100 93 100 100 100 100 100
13 15 17 19 21 24 29 39 49 54 60 78 92 98 100 100 100 100 100 100 100 100 100 100 100 100 100 100 100 100 100 100 100 100 100 100 100 100 100 95 87 89 85
12 14 18 22 24 26 32 40 49 55 54 79 100 100 100 100 100 100 100 100 100 100 100 100 100 100 100 100 100 92 89 100 100 100 100 100 91 87 100 97 83 84 79
12 13 17 21 25 29 34 44 51 52 57 61 86 100 100 100 100 100 100 100 100 100 100 100 100 100 100 100 100 100 100 100 100 96 97 94 91 88 89 86 76 90 98

GFSGL_250_rhum_135.txt.gz
RH
84 94 94 100 100 100 100 100 99 98 91 97 89 66 72 56 65 61 92 100 83 66 85 90 86 84 67 67 83 99 100 84 62 91 100 100 100 100 100 100 100 100 100
100 100 100 100 100 100 100 100 100 96 91 71 81 72 69 78 85 83 100 100 84 75 64 78 85 75 52 91 100 97 100 100 71 98 100 100 100 100 100 100 100 100 100
100 100 99 98 95 100 100 100 100 100 88 81 72 84 71 88 100 83 100 99 92 70 72 55 63 62 50 100 100 100 100 100 92 100 100 100 100 100 100 100 100 100 100
95 89 100 98 94 96 100 86 90 89 91 80 92 100 75 92 98 98 98 92 97 70 67 48 68 53 72 100 100 100 100 100 100 100 100 100 100 100 100 100 100 100 100
86 80 90 100 94 100 100 100 100 77 96 82 88 74 81 93 93 100 90 79 99 70 66 57 69 70 41 100 94 93 100 100 99 100 100 100 100 100 100 100 100 100 100
99 96 88 94 100 100 100 100 100 76 82 68 84 89 91 100 100 94 79 68 92 90 64 60 76 74 43 95 100 100 98 100 100 100 100 100 100 100 100 100 100 100 100
89 100 100 100 100 100 100 100 100 100 99 70 90 95 90 93 100 82 58 58 71 57 46 60 72 81 42 66 100 100 96 90 100 100 100 100 100 100 100 100 100 100 100
93 98 99 100 100 100 100 100 100 100 100 100 100 100 96 91 93 96 100 95 100 100 63 51 57 84 54 32 79 100 100 93 69 82 100 100 100 100 100 100 100 100 100
72 78 87 98 100 100 100 100 100 95 96 100 81 100 84 78 53 51 100 100 100 100 100 54 56 92 55 35 31 85 95 93 99 98 94 100 100 100 100 100 100 100 100
57 71 71 73 94 100 98 100 98 100 99 100 97 91 79 60 58 99 89 100 100 100 100 62 57 81 88 44 35 52 84 86 90 99 100 100 100 100 100 100 100 100 100
72 91 85 88 83 86 95 89 100 99 100 99 99 88 75 55 63 100 100 100 100 100 96 66 63 80 100 74 42 34 31 38 93 99 100 100 100 100 100 100 100 94 100
72 80 73 79 81 72 81 79 93 94 96 82 78 72 60 46 52 100 100 94 90 92 80 59 58 92 100 87 39 38 37 32 35 73 100 100 100 100 100 100 100 100 100
38 52 55 59 48 52 60 78 88 85 88 81 64 51 52 43 53 86 100 96 100 92 73 62 54 89 100 100 61 43 40 42 50 74 55 97 100 100 100 100 100 100 100
23 30 29 26 27 29 32 43 63 79 83 88 91 76 66 62 55 98 100 100 78 99 89 72 55 80 100 100 78 49 50 64 84 76 89 93 100 100 100 100 100 100 100
23 21 16 13 11 13 18 30 35 55 77 80 86 98 100 70 53 54 85 91 86 85 78 98 76 64 100 100 97 60 60 63 100 100 100 93 91 94 98 100 100 100 97
15 15 16 16 16 16 21 26 27 35 50 63 66 77 97 100 96 88 90 71 89 80 88 100 92 57 93 98 100 79 69 64 65 100 100 100 100 100 100 100 100 100 100
11 11 12 12 12 13 16 24 32 30 36 43 54 54 63 100 100 100 100 100 77 78 99 100 100 71 96 99 100 100 74 70 74 68 63 63 71 100 100 100 100 100 100
7 7 8 9 10 10 11 14 22 30 32 34 44 57 60 66 86 100 100 100 98 94 78 88 84 69 95 100 100 100 100 86 71 70 70 69 65 65 66 66 72 80 86
7 7 7 7 7 8 9 11 14 20 25 34 41 49 60 62 77 83 88 96 80 78 100 100 88 76 96 100 100 100 100 100 100 95 81 75 69 64 62 67 76 87 98
7 7 7 7 7 8 9 10 12 16 20 24 37 49 65 72 82 90 95 79 90 98 97 92 76 91 100 100 100 100 100 100 100 100 100 98 99 96 95 100 100 99 96
6 7 8 8 7 8 9 10 12 15 19 26 35 40 64 79 87 100 100 91 100 87 95 100 100 100 100 100 100 100 100 100 100 100 100 100 100 100 95 90 85 80 67
6 6 7 8 8 8 10 12 13 15 19 25 32 42 60 67 75 86 91 100 100 100 100 100 100 100 100 100 100 100 100 100 100 92 84 80 79 78 75 71 62 52 50
6 7 8 8 8 9 12 13 14 16 20 27 34 47 57 69 78 95 100 100 100 100 100 100 100 100 100 100 100 100 100 100 100 99 100 91 89 82 72 64 66 76 87
7 7 8 8 9 10 13 15 16 19 22 29 36 49 62 74 91 97 100 100 100 100 99 88 100 100 100 100 100 100 100 100 100 97 91 87 80 79 90 94 91 76 88
7 8 8 10 10 10 14 16 18 21 24 30 40 50 64 82 99 100 98 100 100 100 100 100 100 100 100 100 100 100 100 100 100 100 100 100 100 98 92 87 100 100 100
7 7 8 10 11 13 15 18 20 24 26 30 40 50 60 80 94 100 100 100 100 100 100 100 100 100 100 100 100 100 100 100 100 100 100 100 100 97 100 100 88 91 82

GFSGL_250_rhum_138.txt.gz
RH
40 35 30 30 52 70 62 67 70 96 100 100 100 100 100 100 79 97 87 78 66 50 52 66 100 81 84 94 100 100 98 75 77 70 95 100 100 100 94 95 100 100 100
56 42 39 60 72 87 86 89 96 100 100 100 100 100 100 100 100 87 86 76 68 60 63 98 100 79 78 82 100 96 93 84 69 95 100 100 100 100 96 96 100 100 100
56 52 60 79 86 91 94 100 100 99 100 100 100 100 100 100 95 98 77 73 79 88 95 93 97 82 74 66 80 92 84 69 73 100 74 91 92 100 100 92 98 100 100
51 51 67 87 90 84 97 98 100 100 100 100 100 100 100 100 100 82 71 85 88 97 81 85 93 79 65 66 84 90 78 59 85 100 100 100 100 100 100 98 95 100 100
59 66 76 97 82 90 97 96 100 99 100 100 100 100 100 100 100 79 74 88 85 100 90 94 92 83 58 65 71 72 67 73 100 100 100 100 100 100 100 100 100 100 100
60 64 67 88 100 100 100 100 100 100 100 100 90 99 100 100 100 99 96 97 78 93 88 80 82 66 59 63 56 68 60 81 100 100 100 100 100 100 100 100 100 100 100
75 67 76 82 97 96 98 100 100 100 100 100 100 100 100 100 100 100 87 82 77 79 85 67 89 77 61 55 54 62 64 61 100 98 100 100 100 100 100 100 100 100 100
80 78 81 83 88 96 96 95 97 100 100 99 100 100 85 100 94 84 71 64 77 76 78 87 100 72 72 66 52 54 67 56 96 97 100 100 100 100 100 100 100 100 100
90 84 93 74 77 83 92 98 100 100 100 96 90 74 96 100 75 67 58 82 56 91 100 100 100 100 100 68 61 56 67 58 55 100 96 100 100 100 100 100 100 100 100
59 59 70 80 74 75 78 89 92 95 98 100 100 100 81 68 81 71 68 68 67 100 100 100 94 100 100 50 71 55 58 67 34 54 99 100 100 100 100 100 100 100 100
28 32 52 56 68 65 54 72 85 85 91 95 99 92 100 77 71 63 79 76 72 91 100 99 96 100 100 64 75 66 60 73 40 35 60 100 100 100 100 100 100 100 100
20 23 30 52 62 79 60 62 68 79 82 84 82 88 91 98 76 68 78 64 65 67 100 100 100 92 100 88 100 75 65 83 68 40 38 45 56 79 100 100 100 100 100
31 27 28 33 50 62 58 50 47 56 62 80 94 88 82 93 87 76 77 72 71 72 88 100 100 100 75 95 100 70 59 78 76 78 46 35 32 35 53 100 100 100 100
22 20 20 21 23 25 38 40 38 37 33 54 64 89 94 96 99 90 86 79 68 89 91 100 100 82 92 100 98 72 59 91 82 74 60 41 40 63 65 75 100 100 100
10 11 13 15 16 18 22 24 24 24 27 30 43 48 71 78 90 96 87 74 83 93 77 100 100 100 100 100 90 78 57 80 98 95 82 61 50 83 100 100 99 100 100
12 12 11 12 13 16 16 15 20 20 22 29 37 25 37 56 73 88 90 94 84 66 92 100 100 92 100 100 94 90 80 64 90 100 97 87 60 69 77 96 90 86 88
11 9 9 9 9 11 12 11 12 15 15 18 25 43 43 41 56 72 78 69 68 75 100 98 100 85 93 100 92 82 92 65 65 100 100 100 83 73 100 100 99 100 96
9 9 8 8 7 7 7 8 9 11 13 16 20 29 40 39 47 50 53 53 51 50 75 79 94 99 100 81 72 93 91 69 67 96 100 100 100 92 78 86 100 100 100
7 6 6 6 7 7 7 6 7 8 11 14 18 23 30 41 37 38 57 66 65 64 68 84 97 93 100 73 80 83 64 74 75 92 100 100 100 100 100 100 98 100 98
5 5 5 5 6 6 6 6 6 7 8 13 17 21 25 32 38 40 52 67 94 98 100 100 97 95 95 100 98 92 69 64 77 94 100 100 100 100 100 100 100 100 100
5 5 5 5 6 6 6 6 6 7 8 9 13 14 18 26 37 42 58 66 74 94 100 100 100 100 100 100 100 97 92 79 81 98 100 100 100 100 100 100 100 100 100
6 5 5 5 6 6 7 6 6 7 8 9 10 12 14 20 32 44 54 65 74 80 93 100 100 100 100 100 95 96 100 99 94 100 100 100 100 100 100 100 100 100 98
6 6 6 6 6 6 7 8 7 7 8 10 12 13 15 18 26 38 54 73 77 81 93 100 100 100 100 96 100 100 100 100 100 100 100 100 100 100 100 95 82 77 84
7 6 5 6 6 6 8 8 8 8 9 11 13 14 16 18 23 36 61 86 94 96 100 100 100 99 99 100 100 100 100 100 100 100 100 100 100 100 100 100 100 100 98
9 8 6 5 6 7 8 9 9 9 10 12 14 16 19 22 24 34 56 85 87 97 100 100 99 100 100 100 100 100 100 100 100 100 100 100 100 100 100 98 96 95 83
8 8 8 6 5 6 8 9 9 10 12 14 16 18 21 25 31 40 53 74 88 95 94 98 100 100 100 100 100 100 100 100 100 100 100 100 100 100 100 98 94 86 80

GFSGL_250_rhum_141.txt.gz
RH
32 43 42 46 29 27 37 42 37 43 49 44 46 71 95 100 100 100 100 95 66 85 95 100 96 92 78 59 63 61 62 80 100 97 72 72 66 61 63 96 100 100 83
31 32 36 45 40 39 46 36 31 31 36 32 29 32 37 65 89 100 100 81 72 93 95 90 96 88 66 52 70 51 68 92 99 100 100 91 100 85 62 79 91 100 100
29 30 37 44 40 38 40 31 35 51 53 56 50 52 55 51 76 82 80 90 69 91 100 100 94 91 59 83 90 56 67 66 76 99 100 95 100 100 78 65 62 81 96
27 29 36 53 56 54 62 58 61 75 85 72 69 71 75 93 99 100 81 97 100 100 100 100 97 90 65 73 73 56 56 49 55 69 100 100 97 74 86 87 63 100 100
26 29 47 69 67 76 83 74 78 88 91 92 95 98 85 100 100 100 91 100 85 100 100 100 98 94 69 78 68 54 49 48 64 68 93 90 76 65 88 100 100 100 100
72 53 54 74 79 85 90 77 77 89 95 98 100 100 100 99 100 89 99 100 100 100 100 94 100 92 74 75 78 64 59 58 65 94 88 79 58 95 100 99 100 100 100
100 100 93 90 83 85 83 76 85 95 92 98 98 100 100 100 100 100 100 100 100 100 100 100 99 93 72 62 54 64 67 64 70 81 86 78 79 98 100 100 100 100 100
100 97 100 100 74 82 80 72 77 88 95 100 100 100 100 100 100 100 100 100 100 100 100 100 100 88 98 85 49 70 77 67 73 63 58 72 68 100 100 100 100 100 100
100 93 83 75 72 85 85 80 70 82 80 94 100 97 100 92 100 100 100 100 100 100 96 100 87 84 100 100 98 84 90 100 86 69 56 70 65 83 100 100 100 100 100
100 84 65 67 79 59 62 66 67 61 68 88 99 98 98 99 100 100 90 100 99 95 100 100 79 96 100 100 94 98 100 100 94 71 72 54 71 68 100 100 100 100 100
63 56 38 42 51 52 41 56 57 56 58 71 84 96 95 100 96 97 91 90 92 99 98 86 76 54 84 100 97 75 100 100 97 75 60 69 66 75 60 100 100 100 100
35 27 31 35 25 32 30 35 40 41 43 42 64 79 87 100 99 90 100 96 91 100 93 72 63 62 100 100 100 87 91 100 77 96 63 57 74 81 63 43 86 100 100
36 26 35 37 28 30 29 34 36 42 45 42 44 60 70 83 96 92 92 86 87 99 100 63 57 77 100 100 100 96 74 69 66 100 84 43 66 76 88 47 47 77 89
28 24 28 27 24 26 33 30 36 45 41 52 44 50 59 71 86 92 90 82 82 82 71 62 54 69 94 100 100 96 85 66 86 83 100 50 55 70 99 92 53 44 40
27 23 22 18 18 14 14 21 23 28 34 38 46 51 49 57 63 83 92 86 78 80 73 59 53 73 93 100 100 100 100 100 100 100 100 51 58 57 85 87 98 83 48
26 26 18 15 11 11 12 13 17 16 19 26 32 41 40 57 57 60 68 76 71 73 74 60 59 78 81 100 100 99 97 100 100 100 98 56 50 52 73 90 91 98 78
14 13 12 10 11 10 10 10 8 10 12 13 14 17 21 24 30 36 50 57 55 58 66 64 64 69 80 100 100 100 96 98 100 100 94 75 66 56 56 82 98 99 100
13 12 11 10 9 8 7 7 7 7 9 10 10 12 14 14 16 20 24 32 44 54 48 62 66 82 100 100 100 100 100 100 100 100 86 84 80 79 72 73 78 100 100
11 11 11 10 9 8 7 7 6 6 6 8 8 8 10 12 15 19 22 27 34 33 54 60 78 90 97 100 100 100 100 100 100 100 88 72 88 93 69 59 60 82 100
9 8 7 7 6 6 6 5 5 5 6 6 6 7 8 11 14 16 20 21 21 27 40 62 80 84 100 100 100 96 100 100 100 100 100 97 83 93 75 87 74 95 100
9 8 7 6 5 5 4 4 5 5 5 6 6 6 7 9 11 14 14 19 19 19 29 58 86 100 100 100 100 100 100 100 100 98 100 84 96 87 78 86 76 86 94
9 9 7 6 5 5 4 4 4 5 5 6 6 6 6 7 8 11 12 16 17 20 36 65 86 100 97 100 100 100 99 100 100 100 100 100 100 90 95 79 80 96 87
10 10 9 7 6 5 4 4 4 5 5 6 6 6 7 8 9 11 13 16 18 21 40 59 80 88 95 91 91 81 98 100 100 100 100 100 100 100 98 98 100 100 100
10 10 10 9 8 6 5 5 5 5 5 6 7 7 7 8 10 12 14 16 18 21 33 49 70 86 100 100 100 100 100 100 100 100 100 100 100 100 92 100 100 100 100
10 9 8 8 8 7 6 5 5 6 6 6 7 7 8 9 10 11 13 15 21 23 31 44 60 88 89 93 99 100 100 100 100 100 100 99 89 88 95 100 100 100 100
10 9 9 8 7 8 8 6 5 6 6 7 7 8 9 10 11 12 13 17 22 27 33 47 62 82 95 100 100 100 100 100 100 100 100 99 100 100 100 100 100 100 100

GFSGL_250_rhum_147.txt.gz
RH
15 17 21 27 22 24 40 67 69 89 100 88 71 81 97 73 92 99 100 99 86 100 100 100 100 100 100 100 100 82 83 98 100 70 81 100 93 80 60 41 44 68 78
9 11 14 24 28 42 51 61 71 93 100 83 51 72 90 90 100 100 100 100 99 99 100 100 100 100 100 100 96 69 100 100 100 90 81 98 91 79 64 60 53 43 82
9 8 12 13 25 72 57 68 68 86 100 97 74 74 87 98 94 100 100 100 84 86 100 100 100 100 100 100 100 100 100 100 100 100 83 100 86 82 66 62 59 55 76
7 8 12 19 53 51 78 69 64 68 97 100 73 71 83 100 100 100 100 100 97 99 100 99 100 100 100 100 100 100 100 100 100 98 91 100 100 92 76 65 62 56 72
6 7 9 18 48 100 74 88 80 83 78 94 82 60 60 76 100 100 100 77 79 82 80 94 100 100 100 100 100 100 100 100 100 100 96 100 100 100 93 65 58 46 49
8 9 10 16 38 62 68 100 80 97 81 72 87 60 70 85 100 100 100 100 94 62 56 55 98 100 100 100 100 100 100 100 100 100 100 100 94 78 79 75 58 58 44
12 16 17 35 82 77 100 100 76 86 72 60 84 88 81 78 86 81 98 100 90 86 80 63 88 100 100 100 100 100 100 77 100 100 100 100 88 100 98 67 70 64 66
17 25 29 43 50 87 100 100 94 80 75 93 96 99 86 73 70 83 72 44 41 46 55 73 74 64 99 100 100 100 100 93 100 100 83 100 87 66 64 70 74 70 58
33 22 26 38 56 73 92 100 100 99 100 100 84 65 50 65 84 82 63 45 49 57 81 69 71 59 51 75 84 100 100 90 72 100 100 82 85 72 64 77 80 62 71
40 29 29 47 79 79 89 94 100 100 99 100 100 83 73 48 52 54 54 50 43 55 59 86 81 60 42 37 67 100 100 100 77 73 100 100 96 93 76 83 76 68 86
46 40 28 26 47 74 98 100 100 100 100 100 95 60 59 56 55 66 58 66 56 59 72 86 92 90 78 51 54 100 100 100 79 100 100 89 93 79 89 90 86 89 97
47 52 48 43 50 54 90 100 100 95 99 85 77 78 79 85 76 63 52 56 62 66 80 90 95 100 100 97 86 100 100 100 99 100 100 100 100 77 100 100 96 98 88
48 54 56 54 44 41 52 66 74 80 91 92 85 68 58 63 64 59 53 54 59 68 68 91 100 100 100 100 100 100 100 100 100 100 100 100 100 91 100 100 100 100 75
39 41 31 34 41 39 53 52 42 52 69 66 66 57 48 56 58 53 46 47 53 68 74 85 92 99 100 100 100 100 100 100 100 100 100 100 100 100 100 82 77 89 77
46 51 42 40 36 37 32 30 30 43 45 41 39 40 40 41 50 59 64 61 59 59 77 89 90 100 100 100 100 98 100 100 100 100 100 100 100 94 100 100 100 100 100
38 51 51 52 35 33 30 23 22 22 23 27 29 33 43 43 42 44 54 64 61 51 65 86 87 100 100 97 100 100 100 100 100 100 100 100 99 58 74 100 100 100 100
18 24 29 37 36 31 24 23 28 28 27 28 29 31 30 37 40 41 38 39 45 50 55 60 88 90 83 77 94 88 98 100 100 100 100 100 100 100 100 98 100 100 100
12 12 12 12 11 11 12 14 21 18 23 28 22 18 16 18 20 17 17 19 20 24 28 30 37 60 80 77 76 86 81 96 98 100 100 100 100 100 100 100 100 100 100
10 10 10 11 10 10 10 11 10 9 10 9 9 10 10 11 12 11 10 7 7 7 8 10 13 11 15 23 43 56 70 74 87 87 95 100 100 100 100 100 100 99 100
10 9 9 9 9 9 8 8 8 8 7 7 7 7 7 8 9 8 8 8 8 8 9 11 11 11 12 14 13 14 31 52 63 68 84 95 84 97 100 100 100 100 100
11 10 10 8 7 7 6 6 6 6 6 5 6 6 6 6 7 7 7 7 7 7 7 7 8 10 11 13 15 20 18 23 34 57 65 82 82 100 100 100 100 100 100
13 12 11 11 10 9 8 8 7 6 5 5 5 4 5 5 5 5 6 6 6 6 6 6 6 7 8 10 11 14 18 24 24 34 52 65 76 94 98 99 100 100 100
12 11 11 11 11 10 9 9 9 8 8 8 7 6 5 5 4 4 5 5 5 5 5 5 5 5 6 8 10 10 12 15 19 33 42 52 58 65 91 100 100 100 100
10 10 10 10 9 9 9 8 8 8 8 8 8 8 6 4 4 4 4 4 4 4 4 4 4 5 6 6 8 9 10 12 16 26 37 48 53 59 70 100 100 100 100
11 10 9 9 9 9 9 9 8 8 7 6 7 7 7 5 4 4 4 4 4 4 4 4 5 5 5 6 8 9 10 11 14 15 24 38 54 67 62 92 100 100 99
9 9 9 8 8 8 8 8 8 7 7 7 6 6 6 6 4 4 4 4 5 5 5 5 5 5 5 6 7 8 10 13 16 20 26 39 44 70 78 79 98 100 100

GFSGL_250_rhum_150.txt.gz
RH
13 14 10 11 10 10 10 8 14 24 28 31 54 86 77 90 92 100 100 100 100 100 100 98 90 100 100 100 96 62 52 58 53 100 74 100 95 53 87 72 73 73 59
6 7 7 8 10 11 12 15 17 20 26 40 99 99 92 94 100 100 100 100 100 100 100 100 100 100 100 100 100 97 60 41 74 99 100 83 82 100 100 92 74 84 72
6 6 7 7 7 7 8 12 20 31 38 62 97 99 93 100 95 98 100 100 100 100 100 96 100 95 99 100 100 100 76 87 100 62 85 96 75 98 100 100 91 82 79
5 6 6 7 9 10 13 11 14 60 100 83 100 90 88 78 67 74 97 100 100 95 100 100 100 98 89 100 100 100 100 100 100 100 64 75 96 100 100 100 95 96 82
5 5 5 6 8 11 15 18 22 64 84 95 78 80 92 76 67 63 61 77 91 100 100 97 100 100 97 100 100 100 100 100 100 91 100 100 87 99 100 86 99 100 93
5 5 6 6 8 10 18 27 55 90 100 100 74 86 90 92 90 67 77 75 68 81 93 97 100 100 96 100 100 100 100 100 100 79 100 95 100 100 98 86 84 84 79
6 6 7 8 8 13 21 57 82 91 71 79 96 100 93 98 99 85 63 64 81 88 98 100 87 100 95 98 100 100 100 100 100 100 100 94 68 86 91 100 100 100 100
7 8 8 10 10 15 46 64 98 73 87 83 91 100 86 90 100 88 57 62 79 100 100 100 100 98 100 85 86 100 100 100 100 100 100 100 100 100 100 99 100 87 100
9 13 12 12 20 28 62 71 87 100 90 81 82 95 87 85 77 98 89 90 90 91 100 100 100 100 89 96 90 87 100 100 100 100 100 100 99 100 94 97 90 66 75
14 27 22 20 25 26 46 100 100 100 98 100 100 100 100 81 70 88 92 92 76 91 76 90 100 100 100 100 92 74 79 100 100 100 100 100 100 100 82 100 94 100 100
20 32 40 42 55 41 79 100 100 94 100 100 100 100 86 79 70 74 71 79 76 71 77 79 88 97 100 100 84 79 71 67 84 100 92 100 100 100 100 90 100 100 94
27 36 45 58 63 70 80 89 98 93 99 100 100 100 100 100 100 82 78 65 49 62 80 77 67 65 62 60 62 61 65 63 55 64 76 95 100 100 100 99 95 100 100
27 57 56 55 71 69 66 85 87 76 79 90 100 100 100 100 100 100 87 70 41 47 53 47 49 48 40 33 37 41 59 84 72 42 64 81 100 100 100 100 89 81 100
30 32 64 76 65 55 43 52 72 78 63 70 81 98 95 96 99 81 66 61 72 87 70 65 63 59 55 54 65 70 86 96 81 55 40 36 84 88 100 100 100 96 100
19 30 36 53 77 68 48 44 40 50 44 48 65 74 89 89 85 86 89 84 69 74 80 84 75 66 59 55 77 66 88 89 88 98 100 94 84 100 100 100 100 100 100
17 16 19 32 63 65 67 69 62 65 56 51 54 49 51 63 75 76 74 70 64 69 66 66 66 56 61 68 72 87 95 84 100 100 100 100 100 100 100 100 100 100 100
12 12 13 14 20 25 55 70 67 78 71 70 58 49 51 48 51 43 45 41 44 51 53 48 52 55 54 57 64 67 97 99 100 100 100 100 100 100 100 100 100 100 100
10 11 12 13 12 12 13 11 11 14 24 25 28 34 37 42 38 38 38 33 34 38 43 42 41 36 45 54 59 65 72 92 94 94 100 100 100 99 100 100 100 100 96
10 10 9 10 10 11 10 10 10 10 10 9 11 14 17 17 19 18 18 18 16 16 19 24 25 24 25 28 31 32 31 45 74 81 82 100 100 100 96 100 100 100 100
11 9 9 9 9 9 9 9 8 8 8 8 8 8 8 9 9 8 8 9 10 9 9 9 11 11 12 11 12 13 11 11 25 42 56 72 95 100 98 82 100 100 100
10 9 9 8 7 7 7 7 7 7 7 7 7 7 7 7 7 7 7 7 7 7 6 6 7 7 9 8 8 9 13 14 13 13 16 36 53 77 100 100 83 94 100
10 10 9 8 7 6 6 6 6 6 6 6 6 6 6 6 6 6 6 6 6 6 6 6 6 6 6 6 6 7 8 10 12 15 22 21 24 34 67 71 92 100 100
10 10 10 9 9 8 8 7 6 6 6 6 6 6 6 5 5 5 5 5 5 5 5 5 5 5 4 5 5 5 6 6 8 10 14 18 27 27 25 40 44 73 87
8 8 8 8 8 8 8 8 8 7 7 7 6 6 6 6 6 6 5 5 4 4 4 4 4 4 4 4 4 4 5 5 6 8 10 12 16 22 32 47 40 41 70
7 7 7 6 7 7 7 6 7 7 7 6 6 6 6 6 6 6 5 5 4 4 4 4 4 4 4 4 4 5 5 5 5 6 8 9 10 13 18 21 31 54 59
4 4 4 5 5 5 5 6 7 6 6 7 7 7 7 6 6 5 5 5 5 5 4 4 4 4 4 4 5 5 5 5 5 6 6 7 9 10 12 16 21 24 42

GFSGL_250_rhum_153.txt.gz
RH
7 6 6 7 7 6 7 8 11 8 7 9 13 16 16 20 30 39 58 66 96 100 100 100 100 100 99 100 85 99 77 100 100 100 68 68 100 100 97 95 100 96 100
6 6 5 5 5 5 5 5 7 9 8 10 15 18 22 23 32 56 52 86 94 100 100 100 100 100 100 100 89 85 74 98 100 100 68 91 100 94 94 98 100 100 95
5 5 5 5 6 6 5 5 5 6 8 11 14 16 19 26 37 59 68 66 82 100 100 100 100 100 100 90 97 91 73 84 100 96 74 71 95 100 89 94 100 100 98
6 5 5 4 5 5 6 7 6 7 7 10 16 22 29 34 46 72 86 78 96 100 100 100 100 100 100 97 97 93 65 77 100 100 100 84 73 68 54 67 89 100 100
4 4 4 4 4 5 6 6 8 10 9 10 13 37 44 45 100 80 91 100 100 100 100 100 99 98 99 96 69 90 65 64 99 100 100 97 78 71 59 76 47 64 95
5 5 4 5 4 4 5 6 7 10 11 12 18 58 49 67 97 90 93 100 100 100 100 100 100 100 100 91 86 91 80 67 92 100 100 100 98 67 100 100 70 100 100
6 5 5 6 5 5 6 7 8 11 16 17 19 53 72 90 100 100 100 100 99 100 91 93 99 100 100 100 91 90 93 100 100 100 100 100 100 93 96 100 83 100 100
6 6 6 7 7 7 7 8 10 14 17 22 37 74 87 100 100 98 100 99 90 98 96 92 91 100 100 100 100 99 87 77 98 100 100 100 100 100 100 100 100 79 67
8 8 7 8 9 8 9 12 12 15 20 24 55 74 73 90 93 97 95 98 91 88 100 89 75 72 95 100 100 100 98 85 86 100 100 100 94 100 98 100 100 100 100
8 9 8 10 14 12 15 22 27 23 36 47 74 80 100 100 85 74 79 87 93 88 88 96 84 66 71 78 99 100 100 100 98 100 100 100 100 100 99 84 79 99 88
10 10 13 15 16 16 26 28 34 60 77 71 78 69 98 83 84 95 99 96 87 79 76 82 91 85 77 70 76 96 100 100 100 100 100 100 100 100 100 100 100 86 73
14 19 15 21 28 23 26 35 30 56 78 67 74 91 99 100 93 98 97 91 76 57 68 83 79 84 81 73 75 77 82 100 100 100 100 100 100 99 100 100 100 100 100
14 20 25 26 31 42 34 28 41 51 77 88 77 81 95 100 99 99 89 90 94 88 75 62 64 91 95 94 78 75 69 79 100 100 100 100 100 99 100 100 100 100 100
14 14 22 26 34 39 49 45 44 58 59 76 88 83 84 92 95 91 87 80 77 79 76 63 61 70 82 80 68 68 72 79 83 81 87 100 93 87 91 92 91 100 100
14 15 15 19 21 23 32 42 46 52 66 74 83 85 90 89 94 92 94 91 86 80 71 54 53 51 55 53 53 54 53 56 51 47 56 75 76 98 99 91 81 77 91
12 13 15 15 19 17 24 27 31 42 45 61 70 70 78 79 68 76 88 84 81 80 84 93 67 60 46 47 53 45 45 54 58 49 44 40 41 44 48 49 39 44 56
10 11 12 12 13 15 16 15 21 27 30 37 49 49 60 67 63 56 66 63 66 66 69 68 65 64 59 59 51 53 47 51 61 52 46 44 49 64 80 88 66 57 59
8 8 9 11 11 10 10 12 14 15 18 25 24 35 46 34 32 43 50 51 59 57 51 55 59 52 49 46 43 43 48 43 38 39 37 42 45 74 88 90 91 92 77
9 9 8 8 9 10 10 8 8 9 10 11 13 14 16 18 23 25 30 31 35 46 50 50 45 43 39 38 36 34 39 54 51 41 37 38 41 56 75 90 76 86 82
10 9 9 7 7 7 8 8 8 7 7 8 8 9 9 12 11 12 13 15 12 12 13 15 19 22 22 23 26 26 26 30 36 34 34 32 36 40 58 75 78 85 90
9 9 8 8 8 7 6 7 6 6 7 6 7 7 8 8 9 9 10 10 8 8 8 8 7 7 9 11 10 9 10 11 15 16 14 14 16 17 20 37 71 80 94
9 9 8 7 6 6 7 7 7 6 6 6 6 6 6 6 6 6 7 8 7 7 7 7 6 6 7 7 7 8 8 8 8 8 8 10 13 14 16 12 15 27 52
8 7 7 7 7 6 6 6 6 6 7 6 6 6 6 6 6 5 5 5 6 6 6 6 6 6 6 6 6 6 7 7 6 6 6 6 7 8 13 15 19 21 22
6 6 5 5 5 5 5 6 6 6 5 5 6 6 5 5 5 5 5 5 5 4 4 4 4 4 4 4 4 5 5 5 5 5 5 6 6 6 7 9 10 15 24
4 4 4 4 4 4 4 4 4 4 4 4 5 5 5 5 5 5 5 5 5 5 5 5 5 5 5 4 4 4 4 4 4 4 5 5 5 6 6 7 7 10 14
3 3 3 3 3 3 3 3 4 4 4 4 4 4 4 4 5 5 5 5 5 5 5 5 5 5 5 5 4 4 3 3 4 4 4 4 5 5 6 6 7 8 10

GFSGL_250_rhum_156.txt.gz
RH
11 10 8 7 7 7 6 6 6 6 6 7 7 7 6 8 10 12 14 17 23 24 27 56 100 100 100 100 100 100 100 100 99 100 88 76 83 100 97 68 79 63 58
10 8 7 7 6 5 5 5 5 5 5 6 6 7 7 10 10 10 12 14 26 41 24 29 99 100 100 100 100 100 100 100 100 86 69 75 94 96 100 100 100 89 49
9 8 8 7 6 6 5 5 5 5 4 5 5 5 6 9 17 16 14 16 25 42 33 39 94 100 100 100 100 100 100 100 100 100 64 74 98 85 100 100 100 100 80
10 8 6 6 5 5 4 4 4 5 5 6 6 5 6 8 15 14 15 19 26 47 37 54 91 99 100 100 100 100 100 100 88 100 97 60 72 78 92 100 100 100 96
6 6 5 4 4 4 4 4 4 4 5 6 7 6 6 8 15 25 20 21 24 38 44 53 78 98 100 100 100 100 100 100 87 100 95 64 60 61 78 98 100 100 100
6 5 5 4 5 5 5 4 4 4 5 6 8 8 7 9 20 25 35 40 35 37 47 44 51 90 100 100 100 100 100 100 76 87 74 76 73 58 61 100 100 100 100
6 6 6 5 6 5 5 5 5 5 5 6 8 9 9 9 24 37 42 72 90 93 80 74 91 98 100 100 100 100 100 91 90 93 93 94 84 75 55 82 100 100 100
6 6 7 7 6 6 6 6 6 6 6 7 8 12 13 14 23 36 59 80 100 100 100 100 100 100 98 100 100 100 100 100 93 96 97 99 95 89 69 78 100 100 100
7 7 8 8 8 7 7 7 7 7 7 8 11 15 16 20 27 39 48 68 78 100 100 100 98 88 93 99 100 100 100 100 87 79 98 94 92 89 90 55 69 100 100
8 8 9 8 9 10 11 9 8 8 9 11 14 18 22 44 60 49 78 75 82 85 93 100 100 100 84 89 95 95 100 100 100 86 78 77 92 86 78 67 80 85 100
9 9 9 11 12 13 15 16 15 12 14 17 18 24 26 42 62 83 84 97 82 91 100 100 100 100 99 98 92 99 93 100 100 96 89 85 85 97 65 69 73 100 100
9 9 8 11 14 18 16 21 24 16 18 21 25 26 31 42 63 89 100 99 98 88 100 100 100 96 94 86 78 83 92 93 98 100 100 97 96 95 92 94 84 81 100
10 10 10 10 12 19 21 19 23 25 23 25 32 33 40 33 74 67 79 89 87 99 99 92 88 84 83 91 88 84 87 88 89 88 100 100 100 100 96 100 100 100 100
10 10 10 10 11 12 19 17 21 24 25 33 50 45 50 55 56 82 83 92 96 99 96 92 92 86 95 97 100 98 95 94 98 100 96 99 99 100 100 100 100 100 100
11 9 9 9 10 10 12 15 15 20 28 27 33 48 58 71 71 67 64 80 73 78 82 72 68 81 83 78 88 100 98 99 98 97 99 92 78 79 82 97 100 90 90
12 11 9 8 8 9 8 10 13 16 17 26 28 28 35 56 64 70 77 80 76 76 77 76 70 69 66 60 55 66 71 72 78 86 85 83 79 71 63 58 62 95 96
11 10 9 9 8 8 7 7 8 10 12 14 17 25 25 28 40 52 58 57 61 66 66 65 58 59 57 54 53 50 59 59 57 71 76 80 81 61 52 42 38 48 68
10 10 9 9 8 8 8 7 7 6 7 9 10 15 21 24 26 30 41 57 60 60 53 46 51 47 35 34 34 38 34 39 39 44 52 71 63 59 52 53 38 32 36
9 10 10 8 7 7 6 6 6 6 5 5 6 7 8 12 15 18 24 29 30 40 41 41 46 44 46 43 45 48 41 32 32 36 38 46 48 47 55 62 58 48 45
8 9 9 8 7 7 7 6 7 6 5 4 4 5 6 6 6 7 10 14 16 21 25 33 37 35 34 35 33 29 29 40 40 36 30 35 41 46 50 53 57 61 61
8 8 7 7 7 7 6 7 7 6 5 5 4 4 4 5 5 5 5 6 6 9 11 10 13 15 15 17 20 22 26 26 25 29 29 26 22 24 26 32 45 53 60
7 6 6 5 5 5 5 6 6 6 5 5 5 4 4 4 4 4 5 5 5 5 6 6 7 7 8 10 12 12 12 10 10 10 10 11 14 19 21 20 22 28 37
4 4 4 4 4 4 5 5 4 4 4 4 5 5 4 4 4 4 4 4 4 4 5 5 5 5 5 6 6 6 6 6 7 7 7 6 7 8 9 10 12 13 14
3 3 3 3 3 3 3 3 4 4 4 4 4 4 5 5 4 4 4 4 3 3 4 4 4 4 4 4 4 4 5 5 5 5 6 6 6 6 7 7 8 8 8
3 3 2 2 2 3 3 3 3 3 3 3 4 4 4 4 5 5 4 4 4 4 3 3 4 4 4 4 4 4 4 4 4 4 4 5 5 5 5 5 6 6 6
3 3 2 2 2 2 2 2 2 3 2 2 2 3 3 3 4 4 4 5 5 5 4 4 4 4 4 4 4 4 4 4 4 4 4 4 4 4 4 5 5 5 5